,Portable 2,Portable 2
,PM10_1HR,PM10_1HR
,,
Date,Value,Null Code
01-Jan-2017 00:00,5.2,
01-Jan-2017 01:00,5.6,
01-Jan-2017 02:00,2.8,
01-Jan-2017 03:00,2.5,
01-Jan-2017 04:00,4,
01-Jan-2017 05:00,5.5,
01-Jan-2017 06:00,3.7,
01-Jan-2017 07:00,7.5,
01-Jan-2017 08:00,11.1,
01-Jan-2017 09:00,5.7,
01-Jan-2017 10:00,4.7,
01-Jan-2017 11:00,2.6,
01-Jan-2017 12:00,3.5,
01-Jan-2017 13:00,5.5,
01-Jan-2017 14:00,7.1,
01-Jan-2017 15:00,6,
01-Jan-2017 16:00,14.6,
01-Jan-2017 17:00,11.4,
01-Jan-2017 18:00,7.5,
01-Jan-2017 19:00,7.9,
01-Jan-2017 20:00,5.8,
01-Jan-2017 21:00,3.7,
01-Jan-2017 22:00,3.5,
01-Jan-2017 23:00,0.9,
02-Jan-2017 00:00,6.8,
02-Jan-2017 01:00,13,
02-Jan-2017 02:00,6.5,
02-Jan-2017 03:00,4.1,
02-Jan-2017 04:00,7.6,
02-Jan-2017 05:00,27.5,
02-Jan-2017 06:00,43.7,
02-Jan-2017 07:00,20.6,
02-Jan-2017 08:00,12.2,
02-Jan-2017 09:00,23.5,
02-Jan-2017 10:00,12.8,
02-Jan-2017 11:00,19.6,
02-Jan-2017 12:00,13.2,
02-Jan-2017 13:00,18.5,
02-Jan-2017 14:00,35.9,
02-Jan-2017 15:00,21.9,
02-Jan-2017 16:00,,BA
02-Jan-2017 17:00,2,
02-Jan-2017 18:00,1.3,
02-Jan-2017 19:00,1.8,
02-Jan-2017 20:00,3.3,
02-Jan-2017 21:00,4.3,
02-Jan-2017 22:00,3,
02-Jan-2017 23:00,3.4,
03-Jan-2017 00:00,3.3,
03-Jan-2017 01:00,3.8,
03-Jan-2017 02:00,3.4,
03-Jan-2017 03:00,3.4,
03-Jan-2017 04:00,14.6,
03-Jan-2017 05:00,7.1,
03-Jan-2017 06:00,9.9,
03-Jan-2017 07:00,13.9,
03-Jan-2017 08:00,11.2,
03-Jan-2017 09:00,7.7,
03-Jan-2017 10:00,4.1,
03-Jan-2017 11:00,4.2,
03-Jan-2017 12:00,5.6,
03-Jan-2017 13:00,6.2,
03-Jan-2017 14:00,13.8,
03-Jan-2017 15:00,24.6,
03-Jan-2017 16:00,26.1,
03-Jan-2017 17:00,28.6,
03-Jan-2017 18:00,24.2,
03-Jan-2017 19:00,32.3,
03-Jan-2017 20:00,13.7,
03-Jan-2017 21:00,8.1,
03-Jan-2017 22:00,6.2,
03-Jan-2017 23:00,4.4,
04-Jan-2017 00:00,5.1,
04-Jan-2017 01:00,6.8,
04-Jan-2017 02:00,8.1,
04-Jan-2017 03:00,7.1,
04-Jan-2017 04:00,6.7,
04-Jan-2017 05:00,7.8,
04-Jan-2017 06:00,7.8,
04-Jan-2017 07:00,3.7,
04-Jan-2017 08:00,7.5,
04-Jan-2017 09:00,5,
04-Jan-2017 10:00,2.8,
04-Jan-2017 11:00,1.2,
04-Jan-2017 12:00,2.7,
04-Jan-2017 13:00,1.9,
04-Jan-2017 14:00,3.2,
04-Jan-2017 15:00,3.9,
04-Jan-2017 16:00,5.4,
04-Jan-2017 17:00,3.2,
04-Jan-2017 18:00,4.1,
04-Jan-2017 19:00,6.6,
04-Jan-2017 20:00,5.2,
04-Jan-2017 21:00,4,
04-Jan-2017 22:00,2.9,
04-Jan-2017 23:00,2.5,
05-Jan-2017 00:00,2.2,
05-Jan-2017 01:00,3.3,
05-Jan-2017 02:00,3.1,
05-Jan-2017 03:00,2.4,
05-Jan-2017 04:00,3.2,
05-Jan-2017 05:00,3.9,
05-Jan-2017 06:00,3.5,
05-Jan-2017 07:00,4.8,
05-Jan-2017 08:00,5.2,
05-Jan-2017 09:00,2.3,
05-Jan-2017 10:00,4.3,
05-Jan-2017 11:00,0.4,
05-Jan-2017 12:00,2,
05-Jan-2017 13:00,2.8,
05-Jan-2017 14:00,5.8,
05-Jan-2017 15:00,6.7,
05-Jan-2017 16:00,7.6,
05-Jan-2017 17:00,21,
05-Jan-2017 18:00,73.1,
05-Jan-2017 19:00,98.7,
05-Jan-2017 20:00,32.3,
05-Jan-2017 21:00,10.7,
05-Jan-2017 22:00,26.4,
05-Jan-2017 23:00,10,
06-Jan-2017 00:00,4.7,
06-Jan-2017 01:00,4.2,
06-Jan-2017 02:00,2.9,
06-Jan-2017 03:00,3.6,
06-Jan-2017 04:00,3.6,
06-Jan-2017 05:00,4.1,
06-Jan-2017 06:00,4.3,
06-Jan-2017 07:00,4.8,
06-Jan-2017 08:00,4.5,
06-Jan-2017 09:00,4.8,
06-Jan-2017 10:00,2,
06-Jan-2017 11:00,1.9,
06-Jan-2017 12:00,1.2,
06-Jan-2017 13:00,2.5,
06-Jan-2017 14:00,5.1,
06-Jan-2017 15:00,5.1,
06-Jan-2017 16:00,6.3,
06-Jan-2017 17:00,6.3,
06-Jan-2017 18:00,6.6,
06-Jan-2017 19:00,5.5,
06-Jan-2017 20:00,4.9,
06-Jan-2017 21:00,5.1,
06-Jan-2017 22:00,15.5,
06-Jan-2017 23:00,5,
07-Jan-2017 00:00,4.8,
07-Jan-2017 01:00,6.7,
07-Jan-2017 02:00,4,
07-Jan-2017 03:00,3.3,
07-Jan-2017 04:00,7.8,
07-Jan-2017 05:00,5,
07-Jan-2017 06:00,8.1,
07-Jan-2017 07:00,6.9,
07-Jan-2017 08:00,7,
07-Jan-2017 09:00,12.6,
07-Jan-2017 10:00,16.5,
07-Jan-2017 11:00,14,
07-Jan-2017 12:00,12,
07-Jan-2017 13:00,9.1,
07-Jan-2017 14:00,7.2,
07-Jan-2017 15:00,6,
07-Jan-2017 16:00,5.2,
07-Jan-2017 17:00,6.5,
07-Jan-2017 18:00,6.1,
07-Jan-2017 19:00,5.7,
07-Jan-2017 20:00,5.7,
07-Jan-2017 21:00,5.5,
07-Jan-2017 22:00,6.1,
07-Jan-2017 23:00,3.5,
08-Jan-2017 00:00,4.2,
08-Jan-2017 01:00,3.1,
08-Jan-2017 02:00,4.2,
08-Jan-2017 03:00,2.1,
08-Jan-2017 04:00,6.5,
08-Jan-2017 05:00,3.4,
08-Jan-2017 06:00,2.5,
08-Jan-2017 07:00,3.2,
08-Jan-2017 08:00,4.8,
08-Jan-2017 09:00,5.2,
08-Jan-2017 10:00,3.6,
08-Jan-2017 11:00,1.1,
08-Jan-2017 12:00,1.8,
08-Jan-2017 13:00,3.9,
08-Jan-2017 14:00,1.8,
08-Jan-2017 15:00,2.4,
08-Jan-2017 16:00,0.6,
08-Jan-2017 17:00,3.5,
08-Jan-2017 18:00,6.6,
08-Jan-2017 19:00,5.2,
08-Jan-2017 20:00,2.8,
08-Jan-2017 21:00,2.5,
08-Jan-2017 22:00,0.5,
08-Jan-2017 23:00,2.4,
09-Jan-2017 00:00,5.8,
09-Jan-2017 01:00,6.8,
09-Jan-2017 02:00,2.2,
09-Jan-2017 03:00,5.8,
09-Jan-2017 04:00,2.5,
09-Jan-2017 05:00,1.6,
09-Jan-2017 06:00,4.2,
09-Jan-2017 07:00,1,
09-Jan-2017 08:00,7.7,
09-Jan-2017 09:00,7.1,
09-Jan-2017 10:00,1.9,
09-Jan-2017 11:00,3.5,
09-Jan-2017 12:00,3,
09-Jan-2017 13:00,2.2,
09-Jan-2017 14:00,2.8,
09-Jan-2017 15:00,5.5,
09-Jan-2017 16:00,5.1,
09-Jan-2017 17:00,6.4,
09-Jan-2017 18:00,2.9,
09-Jan-2017 19:00,2.7,
09-Jan-2017 20:00,4.5,
09-Jan-2017 21:00,5,
09-Jan-2017 22:00,6,
09-Jan-2017 23:00,2.6,
10-Jan-2017 00:00,1.5,
10-Jan-2017 01:00,2.8,
10-Jan-2017 02:00,4.4,
10-Jan-2017 03:00,3.1,
10-Jan-2017 04:00,3.3,
10-Jan-2017 05:00,4.7,
10-Jan-2017 06:00,3.9,
10-Jan-2017 07:00,3.4,
10-Jan-2017 08:00,5.5,
10-Jan-2017 09:00,4.4,
10-Jan-2017 10:00,3.8,
10-Jan-2017 11:00,2.3,
10-Jan-2017 12:00,3.7,
10-Jan-2017 13:00,4.2,
10-Jan-2017 14:00,8.3,
10-Jan-2017 15:00,12.8,
10-Jan-2017 16:00,3.4,
10-Jan-2017 17:00,5.5,
10-Jan-2017 18:00,3,
10-Jan-2017 19:00,4,
10-Jan-2017 20:00,3.2,
10-Jan-2017 21:00,1.5,
10-Jan-2017 22:00,4.2,
10-Jan-2017 23:00,5.9,
11-Jan-2017 00:00,4.2,
11-Jan-2017 01:00,5.3,
11-Jan-2017 02:00,11.1,
11-Jan-2017 03:00,2,
11-Jan-2017 04:00,4.2,
11-Jan-2017 05:00,4.2,
11-Jan-2017 06:00,5.9,
11-Jan-2017 07:00,5.4,
11-Jan-2017 08:00,4.2,
11-Jan-2017 09:00,5.6,
11-Jan-2017 10:00,3.2,
11-Jan-2017 11:00,1.7,
11-Jan-2017 12:00,6.1,
11-Jan-2017 13:00,4.6,
11-Jan-2017 14:00,3.1,
11-Jan-2017 15:00,3.8,
11-Jan-2017 16:00,4.6,
11-Jan-2017 17:00,5,
11-Jan-2017 18:00,3.7,
11-Jan-2017 19:00,5.2,
11-Jan-2017 20:00,3.8,
11-Jan-2017 21:00,3.5,
11-Jan-2017 22:00,3.9,
11-Jan-2017 23:00,3.1,
12-Jan-2017 00:00,3.7,
12-Jan-2017 01:00,4,
12-Jan-2017 02:00,3.3,
12-Jan-2017 03:00,4,
12-Jan-2017 04:00,3.4,
12-Jan-2017 05:00,3.9,
12-Jan-2017 06:00,5.3,
12-Jan-2017 07:00,7.2,
12-Jan-2017 08:00,5.4,
12-Jan-2017 09:00,6.6,
12-Jan-2017 10:00,2.7,
12-Jan-2017 11:00,2.3,
12-Jan-2017 12:00,3.4,
12-Jan-2017 13:00,3.2,
12-Jan-2017 14:00,4.1,
12-Jan-2017 15:00,6.1,
12-Jan-2017 16:00,5.7,
12-Jan-2017 17:00,5.9,
12-Jan-2017 18:00,5.5,
12-Jan-2017 19:00,7.1,
12-Jan-2017 20:00,5.4,
12-Jan-2017 21:00,5.3,
12-Jan-2017 22:00,5.8,
12-Jan-2017 23:00,5.5,
13-Jan-2017 00:00,5.4,
13-Jan-2017 01:00,4.5,
13-Jan-2017 02:00,4.6,
13-Jan-2017 03:00,3.3,
13-Jan-2017 04:00,3.6,
13-Jan-2017 05:00,4.3,
13-Jan-2017 06:00,4.1,
13-Jan-2017 07:00,5.6,
13-Jan-2017 08:00,5.2,
13-Jan-2017 09:00,4.3,
13-Jan-2017 10:00,3.6,
13-Jan-2017 11:00,2.5,
13-Jan-2017 12:00,4.2,
13-Jan-2017 13:00,2.6,
13-Jan-2017 14:00,4.4,
13-Jan-2017 15:00,3.8,
13-Jan-2017 16:00,5.5,
13-Jan-2017 17:00,5.2,
13-Jan-2017 18:00,4.4,
13-Jan-2017 19:00,4.9,
13-Jan-2017 20:00,4.1,
13-Jan-2017 21:00,3.1,
13-Jan-2017 22:00,4.1,
13-Jan-2017 23:00,2.6,
14-Jan-2017 00:00,3.3,
14-Jan-2017 01:00,4.1,
14-Jan-2017 02:00,2.7,
14-Jan-2017 03:00,2.3,
14-Jan-2017 04:00,2.8,
14-Jan-2017 05:00,3.2,
14-Jan-2017 06:00,3.2,
14-Jan-2017 07:00,3.9,
14-Jan-2017 08:00,2.9,
14-Jan-2017 09:00,2.7,
14-Jan-2017 10:00,2.2,
14-Jan-2017 11:00,0.5,
14-Jan-2017 12:00,1.2,
14-Jan-2017 13:00,2.6,
14-Jan-2017 14:00,3.8,
14-Jan-2017 15:00,4.8,
14-Jan-2017 16:00,5.5,
14-Jan-2017 17:00,8,
14-Jan-2017 18:00,6.1,
14-Jan-2017 19:00,6.5,
14-Jan-2017 20:00,6.1,
14-Jan-2017 21:00,3.9,
14-Jan-2017 22:00,3.6,
14-Jan-2017 23:00,3.9,
15-Jan-2017 00:00,3.7,
15-Jan-2017 01:00,4.2,
15-Jan-2017 02:00,3.2,
15-Jan-2017 03:00,3.6,
15-Jan-2017 04:00,3.7,
15-Jan-2017 05:00,4,
15-Jan-2017 06:00,4.4,
15-Jan-2017 07:00,5.3,
15-Jan-2017 08:00,4.2,
15-Jan-2017 09:00,4.6,
15-Jan-2017 10:00,4,
15-Jan-2017 11:00,1.5,
15-Jan-2017 12:00,2.2,
15-Jan-2017 13:00,3.3,
15-Jan-2017 14:00,4.7,
15-Jan-2017 15:00,5.1,
15-Jan-2017 16:00,6.4,
15-Jan-2017 17:00,7.6,
15-Jan-2017 18:00,7.2,
15-Jan-2017 19:00,6.4,
15-Jan-2017 20:00,5.7,
15-Jan-2017 21:00,4.8,
15-Jan-2017 22:00,5,
15-Jan-2017 23:00,5.2,
16-Jan-2017 00:00,4.8,
16-Jan-2017 01:00,10,
16-Jan-2017 02:00,6.4,
16-Jan-2017 03:00,6.5,
16-Jan-2017 04:00,11.9,
16-Jan-2017 05:00,6.1,
16-Jan-2017 06:00,6.4,
16-Jan-2017 07:00,6,
16-Jan-2017 08:00,4.9,
16-Jan-2017 09:00,4.2,
16-Jan-2017 10:00,1.8,
16-Jan-2017 11:00,0.8,
16-Jan-2017 12:00,1.2,
16-Jan-2017 13:00,3.2,
16-Jan-2017 14:00,4.7,
16-Jan-2017 15:00,5.2,
16-Jan-2017 16:00,6,
16-Jan-2017 17:00,7.3,
16-Jan-2017 18:00,3.9,
16-Jan-2017 19:00,4.5,
16-Jan-2017 20:00,4.7,
16-Jan-2017 21:00,4.8,
16-Jan-2017 22:00,5,
16-Jan-2017 23:00,3,
17-Jan-2017 00:00,3.4,
17-Jan-2017 01:00,3.4,
17-Jan-2017 02:00,4.1,
17-Jan-2017 03:00,4.1,
17-Jan-2017 04:00,4.9,
17-Jan-2017 05:00,4.6,
17-Jan-2017 06:00,4.7,
17-Jan-2017 07:00,5.7,
17-Jan-2017 08:00,4.7,
17-Jan-2017 09:00,2.8,
17-Jan-2017 10:00,2.1,
17-Jan-2017 11:00,2.2,
17-Jan-2017 12:00,3.5,
17-Jan-2017 13:00,3.3,
17-Jan-2017 14:00,6.2,
17-Jan-2017 15:00,6.6,
17-Jan-2017 16:00,,AX
17-Jan-2017 17:00,7.7,
17-Jan-2017 18:00,6.6,
17-Jan-2017 19:00,8.6,
17-Jan-2017 20:00,6.3,
17-Jan-2017 21:00,6.1,
17-Jan-2017 22:00,6.3,
17-Jan-2017 23:00,5,
18-Jan-2017 00:00,4.8,
18-Jan-2017 01:00,5.9,
18-Jan-2017 02:00,4.3,
18-Jan-2017 03:00,4.5,
18-Jan-2017 04:00,4.7,
18-Jan-2017 05:00,5.1,
18-Jan-2017 06:00,5.3,
18-Jan-2017 07:00,5.8,
18-Jan-2017 08:00,5.5,
18-Jan-2017 09:00,3.6,
18-Jan-2017 10:00,0.8,
18-Jan-2017 11:00,2.2,
18-Jan-2017 12:00,2.6,
18-Jan-2017 13:00,6.5,
18-Jan-2017 14:00,4.8,
18-Jan-2017 15:00,4.9,
18-Jan-2017 16:00,8.9,
18-Jan-2017 17:00,5.7,
18-Jan-2017 18:00,6.8,
18-Jan-2017 19:00,5.4,
18-Jan-2017 20:00,7.3,
18-Jan-2017 21:00,6.2,
18-Jan-2017 22:00,8.8,
18-Jan-2017 23:00,6.8,
19-Jan-2017 00:00,7.6,
19-Jan-2017 01:00,5.4,
19-Jan-2017 02:00,4.7,
19-Jan-2017 03:00,4,
19-Jan-2017 04:00,4.7,
19-Jan-2017 05:00,5.6,
19-Jan-2017 06:00,7,
19-Jan-2017 07:00,5.9,
19-Jan-2017 08:00,5.6,
19-Jan-2017 09:00,5.8,
19-Jan-2017 10:00,2.8,
19-Jan-2017 11:00,0.9,
19-Jan-2017 12:00,-0.2,
19-Jan-2017 13:00,1.9,
19-Jan-2017 14:00,3.2,
19-Jan-2017 15:00,4,
19-Jan-2017 16:00,6.7,
19-Jan-2017 17:00,5.3,
19-Jan-2017 18:00,4.8,
19-Jan-2017 19:00,3.7,
19-Jan-2017 20:00,4.6,
19-Jan-2017 21:00,3.6,
19-Jan-2017 22:00,3.8,
19-Jan-2017 23:00,5.2,
20-Jan-2017 00:00,1.4,
20-Jan-2017 01:00,2,
20-Jan-2017 02:00,3.5,
20-Jan-2017 03:00,2.3,
20-Jan-2017 04:00,5,
20-Jan-2017 05:00,3.7,
20-Jan-2017 06:00,3.6,
20-Jan-2017 07:00,1.3,
20-Jan-2017 08:00,2.8,
20-Jan-2017 09:00,1.3,
20-Jan-2017 10:00,4.3,
20-Jan-2017 11:00,-2.4,
20-Jan-2017 12:00,1.9,
20-Jan-2017 13:00,3.6,
20-Jan-2017 14:00,-0.2,
20-Jan-2017 15:00,3.2,
20-Jan-2017 16:00,1.7,
20-Jan-2017 17:00,6.4,
20-Jan-2017 18:00,3.7,
20-Jan-2017 19:00,5.2,
20-Jan-2017 20:00,7.4,
20-Jan-2017 21:00,6.1,
20-Jan-2017 22:00,5.6,
20-Jan-2017 23:00,5.4,
21-Jan-2017 00:00,6.3,
21-Jan-2017 01:00,7.1,
21-Jan-2017 02:00,6.7,
21-Jan-2017 03:00,6.2,
21-Jan-2017 04:00,4.6,
21-Jan-2017 05:00,6.3,
21-Jan-2017 06:00,5.8,
21-Jan-2017 07:00,5,
21-Jan-2017 08:00,7.4,
21-Jan-2017 09:00,6.3,
21-Jan-2017 10:00,4.3,
21-Jan-2017 11:00,4.3,
21-Jan-2017 12:00,3.8,
21-Jan-2017 13:00,3.9,
21-Jan-2017 14:00,5.1,
21-Jan-2017 15:00,5.1,
21-Jan-2017 16:00,6.1,
21-Jan-2017 17:00,7.9,
21-Jan-2017 18:00,5.7,
21-Jan-2017 19:00,6,
21-Jan-2017 20:00,6.4,
21-Jan-2017 21:00,6.7,
21-Jan-2017 22:00,6.7,
21-Jan-2017 23:00,2.4,
22-Jan-2017 00:00,7.3,
22-Jan-2017 01:00,5.2,
22-Jan-2017 02:00,-0.4,
22-Jan-2017 03:00,2.1,
22-Jan-2017 04:00,2.4,
22-Jan-2017 05:00,,AV
22-Jan-2017 06:00,,AV
22-Jan-2017 07:00,,AV
22-Jan-2017 08:00,,AV
22-Jan-2017 09:00,,AV
22-Jan-2017 10:00,,AV
22-Jan-2017 11:00,,AV
22-Jan-2017 12:00,,AV
22-Jan-2017 13:00,,AV
22-Jan-2017 14:00,,AV
22-Jan-2017 15:00,,AV
22-Jan-2017 16:00,,AV
22-Jan-2017 17:00,,AV
22-Jan-2017 18:00,5.9,
22-Jan-2017 19:00,3,
22-Jan-2017 20:00,4.1,
22-Jan-2017 21:00,3.9,
22-Jan-2017 22:00,2.7,
22-Jan-2017 23:00,6,
23-Jan-2017 00:00,3.4,
23-Jan-2017 01:00,6.1,
23-Jan-2017 02:00,4.9,
23-Jan-2017 03:00,4.4,
23-Jan-2017 04:00,5.4,
23-Jan-2017 05:00,3.6,
23-Jan-2017 06:00,3.9,
23-Jan-2017 07:00,4.7,
23-Jan-2017 08:00,4.4,
23-Jan-2017 09:00,3.9,
23-Jan-2017 10:00,3.4,
23-Jan-2017 11:00,1.5,
23-Jan-2017 12:00,2.8,
23-Jan-2017 13:00,4.8,
23-Jan-2017 14:00,4.3,
23-Jan-2017 15:00,3.7,
23-Jan-2017 16:00,6.4,
23-Jan-2017 17:00,5.5,
23-Jan-2017 18:00,3.8,
23-Jan-2017 19:00,3.1,
23-Jan-2017 20:00,4.2,
23-Jan-2017 21:00,5,
23-Jan-2017 22:00,5,
23-Jan-2017 23:00,4.7,
24-Jan-2017 00:00,3.5,
24-Jan-2017 01:00,4.6,
24-Jan-2017 02:00,4.9,
24-Jan-2017 03:00,4.3,
24-Jan-2017 04:00,4.5,
24-Jan-2017 05:00,5.4,
24-Jan-2017 06:00,4.7,
24-Jan-2017 07:00,7.1,
24-Jan-2017 08:00,6.2,
24-Jan-2017 09:00,5.5,
24-Jan-2017 10:00,5,
24-Jan-2017 11:00,3.6,
24-Jan-2017 12:00,5.2,
24-Jan-2017 13:00,4,
24-Jan-2017 14:00,4.3,
24-Jan-2017 15:00,5.7,
24-Jan-2017 16:00,6.5,
24-Jan-2017 17:00,6.8,
24-Jan-2017 18:00,6.8,
24-Jan-2017 19:00,4.9,
24-Jan-2017 20:00,6.5,
24-Jan-2017 21:00,5.7,
24-Jan-2017 22:00,4.5,
24-Jan-2017 23:00,4.4,
25-Jan-2017 00:00,3.6,
25-Jan-2017 01:00,3.6,
25-Jan-2017 02:00,5,
25-Jan-2017 03:00,3.6,
25-Jan-2017 04:00,3.7,
25-Jan-2017 05:00,5.2,
25-Jan-2017 06:00,4.8,
25-Jan-2017 07:00,6.6,
25-Jan-2017 08:00,7.7,
25-Jan-2017 09:00,12.1,
25-Jan-2017 10:00,6.6,
25-Jan-2017 11:00,4.4,
25-Jan-2017 12:00,5.5,
25-Jan-2017 13:00,3.7,
25-Jan-2017 14:00,3.6,
25-Jan-2017 15:00,8,
25-Jan-2017 16:00,5.8,
25-Jan-2017 17:00,6.8,
25-Jan-2017 18:00,7.7,
25-Jan-2017 19:00,6.4,
25-Jan-2017 20:00,7,
25-Jan-2017 21:00,6.6,
25-Jan-2017 22:00,3.8,
25-Jan-2017 23:00,4.7,
26-Jan-2017 00:00,4.6,
26-Jan-2017 01:00,5.7,
26-Jan-2017 02:00,5.5,
26-Jan-2017 03:00,3.8,
26-Jan-2017 04:00,4,
26-Jan-2017 05:00,5.6,
26-Jan-2017 06:00,4.9,
26-Jan-2017 07:00,4.8,
26-Jan-2017 08:00,4.8,
26-Jan-2017 09:00,6.9,
26-Jan-2017 10:00,5.1,
26-Jan-2017 11:00,3.5,
26-Jan-2017 12:00,3.1,
26-Jan-2017 13:00,3.2,
26-Jan-2017 14:00,4.3,
26-Jan-2017 15:00,4.4,
26-Jan-2017 16:00,7,
26-Jan-2017 17:00,8.2,
26-Jan-2017 18:00,5.7,
26-Jan-2017 19:00,5.8,
26-Jan-2017 20:00,5.6,
26-Jan-2017 21:00,5.1,
26-Jan-2017 22:00,4.5,
26-Jan-2017 23:00,3.1,
27-Jan-2017 00:00,3.8,
27-Jan-2017 01:00,4.9,
27-Jan-2017 02:00,3.4,
27-Jan-2017 03:00,6.9,
27-Jan-2017 04:00,4.1,
27-Jan-2017 05:00,4.4,
27-Jan-2017 06:00,4.2,
27-Jan-2017 07:00,5.3,
27-Jan-2017 08:00,5.2,
27-Jan-2017 09:00,4.7,
27-Jan-2017 10:00,4.3,
27-Jan-2017 11:00,2.1,
27-Jan-2017 12:00,3.3,
27-Jan-2017 13:00,3.4,
27-Jan-2017 14:00,4.9,
27-Jan-2017 15:00,5.9,
27-Jan-2017 16:00,13.7,
27-Jan-2017 17:00,8.4,
27-Jan-2017 18:00,6.2,
27-Jan-2017 19:00,5.3,
27-Jan-2017 20:00,6.1,
27-Jan-2017 21:00,5.6,
27-Jan-2017 22:00,5.5,
27-Jan-2017 23:00,3.3,
28-Jan-2017 00:00,3.5,
28-Jan-2017 01:00,4.5,
28-Jan-2017 02:00,3.4,
28-Jan-2017 03:00,3.8,
28-Jan-2017 04:00,3.8,
28-Jan-2017 05:00,4,
28-Jan-2017 06:00,3.8,
28-Jan-2017 07:00,4.9,
28-Jan-2017 08:00,4.1,
28-Jan-2017 09:00,4.8,
28-Jan-2017 10:00,4.3,
28-Jan-2017 11:00,3.4,
28-Jan-2017 12:00,2.6,
28-Jan-2017 13:00,3.3,
28-Jan-2017 14:00,5.5,
28-Jan-2017 15:00,5,
28-Jan-2017 16:00,9,
28-Jan-2017 17:00,8.7,
28-Jan-2017 18:00,5.7,
28-Jan-2017 19:00,6,
28-Jan-2017 20:00,5.1,
28-Jan-2017 21:00,5,
28-Jan-2017 22:00,3.7,
28-Jan-2017 23:00,3.6,
29-Jan-2017 00:00,3.2,
29-Jan-2017 01:00,3,
29-Jan-2017 02:00,3.8,
29-Jan-2017 03:00,3.3,
29-Jan-2017 04:00,3.7,
29-Jan-2017 05:00,4,
29-Jan-2017 06:00,3.9,
29-Jan-2017 07:00,7.6,
29-Jan-2017 08:00,4.3,
29-Jan-2017 09:00,5.4,
29-Jan-2017 10:00,3.5,
29-Jan-2017 11:00,2.5,
29-Jan-2017 12:00,2.4,
29-Jan-2017 13:00,2.1,
29-Jan-2017 14:00,5.4,
29-Jan-2017 15:00,5.5,
29-Jan-2017 16:00,6.8,
29-Jan-2017 17:00,7.4,
29-Jan-2017 18:00,5.1,
29-Jan-2017 19:00,4.7,
29-Jan-2017 20:00,5,
29-Jan-2017 21:00,4.9,
29-Jan-2017 22:00,3.9,
29-Jan-2017 23:00,3.1,
30-Jan-2017 00:00,3,
30-Jan-2017 01:00,3.2,
30-Jan-2017 02:00,3,
30-Jan-2017 03:00,3.1,
30-Jan-2017 04:00,3.7,
30-Jan-2017 05:00,3.7,
30-Jan-2017 06:00,3.9,
30-Jan-2017 07:00,4.9,
30-Jan-2017 08:00,4,
30-Jan-2017 09:00,4.5,
30-Jan-2017 10:00,3.7,
30-Jan-2017 11:00,2.9,
30-Jan-2017 12:00,3.3,
30-Jan-2017 13:00,3.6,
30-Jan-2017 14:00,4.6,
30-Jan-2017 15:00,8.1,
30-Jan-2017 16:00,9,
30-Jan-2017 17:00,12.9,
30-Jan-2017 18:00,10.3,
30-Jan-2017 19:00,7.1,
30-Jan-2017 20:00,6.4,
30-Jan-2017 21:00,6.5,
30-Jan-2017 22:00,6.1,
30-Jan-2017 23:00,6.1,
31-Jan-2017 00:00,3.9,
31-Jan-2017 01:00,5.5,
31-Jan-2017 02:00,3.7,
31-Jan-2017 03:00,4.1,
31-Jan-2017 04:00,4.4,
31-Jan-2017 05:00,4.4,
31-Jan-2017 06:00,4.2,
31-Jan-2017 07:00,6.1,
31-Jan-2017 08:00,4.7,
31-Jan-2017 09:00,8,
31-Jan-2017 10:00,2.7,
31-Jan-2017 11:00,2.6,
31-Jan-2017 12:00,3.6,
31-Jan-2017 13:00,3.8,
31-Jan-2017 14:00,5.8,
31-Jan-2017 15:00,7.2,
31-Jan-2017 16:00,6.9,
31-Jan-2017 17:00,8,
31-Jan-2017 18:00,8.3,
31-Jan-2017 19:00,7.7,
31-Jan-2017 20:00,5.3,
31-Jan-2017 21:00,7.7,
31-Jan-2017 22:00,5.9,
31-Jan-2017 23:00,4.3,
